Hourly Data Report for July 03, 2004

SHERBROOKE A
QUEBEC

45°26'00.000" N
71°41'00.000" W
241.40 m
7028124
71610
YSC

Download Data

Hourly Data (July 2004)
Hourly Data Report for July 3, 2004
TIME
LST
Temp Definition
°C
Dew Point Definition
°C
Rel Hum Definition
%
Precip. Amount Definition
mm

Wind Dir Definition
10's deg

Wind Spd Definition
km/h
Visibility Definition
km
Stn Press Definition
kPa
Hmdx Definition


Wind Chill Definition


Weather Definition


00:00 10.8 9.8 94     0 1.3 98.69      
01:00 9.6 8.9 95     0 0.2 98.72      
02:00 9.6 8.9 95     0 0.2 98.72      
03:00 8.9 8.1 95     0 0.3 98.72      
04:00 8.4 7.9 97     0 0.6 98.72      
05:00 9.6 9.0 96   26 6 0.3 98.75      
06:00 13.4 12.4 94   27 6 15.0 98.75      
07:00 14.9 13.4 91   28 13 24.1 98.79     Mostly Cloudy
08:00 16.1 14.1 88   28 11 24.1 98.80     Mostly Cloudy
09:00 18.8 14.9 78   30 13 24.1 98.80     Mostly Cloudy
10:00 19.8 14.2 70   33 11 24.1 98.79     Mainly Clear
11:00 20.5 13.4 64   32 13 24.1 98.78     Mainly Clear
12:00 20.9 13.6 63   4 6 24.1 98.73     Mainly Clear
13:00 22.1 13.9 60   33 9 24.1 98.70 25   Mainly Clear
14:00 24.3 14.3 54   30 17 24.1 98.67 28   Mainly Clear
15:00 24.3 13.4 51   30 17 24.1 98.70 27   Mostly Cloudy
16:00 22.5 12.6 54   32 11 24.1 98.70 25   Mostly Cloudy
17:00 23.2 12.8 52   34 9 15.0 98.69 26    
18:00 23.0 12.8 53   32 7 15.0 98.70 26    
19:00 21.3 13.6 61   1 4 15.0 98.71      
20:00 16.2 13.6 85     0 15.0 98.72      
21:00 14.2 12.1 87   8 6 15.0 98.73      
22:00 13.2 11.7 91     0 15.0 98.75      
23:00 11.6 10.5 93     0 15.0 98.77      

Notes on Data Quality.

Legend

  • E = Estimated
  • M = Missing
  • NA = Not Available*
  • [empty] = Indicates an unobserved value
Date modified: